Location: Newark
(45.0333°N, 18.2865°E)
Time: 04:06:19
(UTC+00:00)

X-37B - Pass Details

Date: 29 September 2021
Orbit: 385 x 389 km, 45.0° (Epoch: 17 October)

Event Time Altitude Azimuth Distance (km) Brightness Sun altitude
Exits shadow 03:02:44 72° 279° (W) 411 0.4 -18.3°
Maximum altitude 03:03:02 88° 2° (N) 392 0.5 -18.2°
Drops below altitude 10° 03:06:13 10° 92° (E) 1,414 4.6 -17.7°
Sets 03:08:17 0° 93° (E) 2,269 5.9 -17.3°
